Spirit of St Louis, MO

8:42 AM CDT on May 26, 2017 (GMT -0500)
Spirit Of Saint Louis

Weather History for KSUS - March, 2014

Change the Weather History Date:

Sunday, March 9, 2014

  Actual Average Record
Temperature  
Mean Temperature 40 °F -  
Max Temperature 57 °F 49 °F 75 °F (2017)
Min Temperature 23 °F 28 °F 17 °F (2003)
Degree Days  
Heating Degree Days 25    
Moisture  
Dew Point 27 °F    
Average Humidity 62    
Maximum Humidity 92    
Minimum Humidity 31    
Precipitation  
Precipitation 0.00 in - - ()
Sea Level Pressure  
Sea Level Pressure 30.21 in    
Wind  
Wind Speed 3 mph (SW)    
Max Wind Speed 12 mph    
Max Gust Speed 20 mph    
Visibility 7 miles    
Events      
Averages and records for this station are not official NWS values.
T = Trace of Precipitation, MM = Missing Value Source: NWS Daily Summary

Daily Weather History Graph

Daily Weather History Graph

Search for Another Location

Airport or City:

Trip Planner

Search our weather history database for the weather conditions in past years. The results will help you decide how hot, cold, wet, or windy it might be!

Date:

Astronomy

Mar. 09, 2014 Rise Set
Actual Time 7:22 AM CDT 7:03 PM CDT
Civil Twilight 6:56 AM CDT 7:30 PM CDT
Nautical Twilight 6:25 AM CDT 8:01 PM CDT
Astronomical Twilight 5:54 AM CDT 8:32 PM CDT
Moon 12:59 PM CDT (3/9) 3:46 AM CDT (3/9)
Length of Visible Light 12h 33m
Length of Day
11h 40m
First Quarter, 61% of the Moon is Illuminated
Mar 9
First Quarter
Mar 16
Full
Mar 23
Last Quarter
Mar 30
New
Apr 7
First Quarter

Hourly Weather History & Observations

Time (CDT) Temp. Windchill Dew Point Humidity Pressure Visibility Wind Dir Wind Speed Gust Speed Precip Events Conditions
12:54 AM 34.0 °F 31.0 °F 30.0 °F 85% 30.33 in 4.0 mi NNW 3.5 mph - N/A   Overcast
1:54 AM 34.0 °F - 28.9 °F 82% 30.33 in 5.0 mi Calm Calm - N/A   Haze
3:32 AM 32.0 °F - 26.6 °F 80% 30.30 in 5.0 mi Calm Calm - N/A   Haze
3:54 AM 28.9 °F - 25.0 °F 85% 30.33 in 5.0 mi Calm Calm - N/A   Clear
4:54 AM 26.1 °F - 24.1 °F 92% 30.34 in 4.0 mi Calm Calm - N/A   Clear
5:54 AM 25.0 °F - 21.9 °F 88% 30.33 in 5.0 mi Calm Calm - N/A   Clear
6:54 AM 23.0 °F - 21.0 °F 92% 30.33 in 5.0 mi Calm Calm - N/A   Clear
7:41 AM 24.8 °F - 21.2 °F 86% 30.31 in 2.0 mi Calm Calm - N/A   Clear
7:54 AM 24.1 °F - 21.9 °F 91% 30.34 in 2.0 mi Calm Calm - N/A   Clear
8:54 AM 30.0 °F - 27.0 °F 88% 30.35 in 2.5 mi Calm Calm - N/A   Haze
9:29 AM 33.8 °F - 28.4 °F 81% 30.32 in 4.0 mi Calm Calm - N/A   Haze
9:54 AM 37.0 °F - 28.0 °F 70% 30.34 in 5.0 mi Calm Calm - N/A   Haze
10:54 AM 39.9 °F 35.1 °F 26.1 °F 58% 30.32 in 6.0 mi WSW 6.9 mph - N/A   Haze
11:54 AM 43.0 °F 41.3 °F 27.0 °F 53% 30.29 in 7.0 mi Variable 3.5 mph - N/A   Clear
12:54 PM 46.9 °F - 27.0 °F 46% 30.25 in 8.0 mi SSW 5.8 mph - N/A   Clear
1:54 PM 50.0 °F - 26.1 °F 39% 30.20 in 9.0 mi SSW 10.4 mph - N/A   Clear
2:54 PM 53.1 °F - 27.0 °F 37% 30.15 in 10.0 mi SW 11.5 mph 18.4 mph N/A   Clear
3:54 PM 55.9 °F - 27.0 °F 33% 30.12 in 10.0 mi SSW 11.5 mph 17.3 mph N/A   Clear
4:54 PM 57.9 °F - 27.0 °F 31% 30.08 in 10.0 mi WSW 10.4 mph 18.4 mph N/A   Clear
5:54 PM 57.9 °F - 28.0 °F 32% 30.05 in 10.0 mi WSW 8.1 mph - N/A   Clear
6:54 PM 55.9 °F - 28.0 °F 34% 30.05 in 10.0 mi SW 5.8 mph - N/A   Clear
7:54 PM 48.0 °F - 27.0 °F 44% 30.04 in 10.0 mi SSW 4.6 mph - N/A   Clear
8:54 PM 45.0 °F 42.6 °F 28.0 °F 52% 30.04 in 10.0 mi South 4.6 mph - N/A   Clear
9:54 PM 44.1 °F - 28.0 °F 53% 30.03 in 10.0 mi Calm Calm - N/A   Clear
10:54 PM 50.0 °F - 30.0 °F 46% 30.03 in 10.0 mi SW 10.4 mph 17.3 mph N/A   Clear
11:54 PM 50.0 °F - 30.0 °F 46% 30.01 in 10.0 mi SW 10.4 mph 19.6 mph N/A   Clear
12:54 AM 46.9 °F - 33.1 °F 59% 29.99 in 10.0 mi WSW 9.2 mph - N/A   Clear